www.pogodaiklimat.ru

Погода и климат >> Архив погоды >> Перу >> Trujillo


ПОГОДА в Trujillo

  • Прогноз погоды в Trujillo
  • Монитор погоды в Trujillo
  • Климат города

АРХИВ ПОГОДЫ в Trujillo

Время (UTC), дата Ветер
(напр.,м/с)
 
Видим.   Явления Облачность Т
(С)
Тd
(С)
f
(%)
Тe
(С)
Тes
(С)
Комфортность P
(гПа)
Po
(гПа)
Тmin
(С)
Tmax
(С)
R
(мм)
R24
(мм)
S
(см)
15 17.11 Ю 4 8000 м дымка 10/10 300 м
[St]
+18.2 +15.3 83 +18 +18 1017.1 1014.3
18 17.11 Ю 4 9000 м дымка 8/8 1500 м
[St]
+19.3 +15.8 80 +21 +24 комфорт 1015.7 1012.9
21 17.11 Ю 4 9000 м дымка 8/3 1200 м
[St Ac trans]
+19.4 +15.9 80 +21 +23 комфорт 1012.9 1010.1
00 18.11 ЮВ 4 9000 м дымка 3/3 600 м
[St]
+17.9 +15.6 86 +18 +18 1014.0 1011.2 +20.6
03 18.11 ЮВ 3 10 км 3/3 600 м
[St]
+17.6 +14.2 80 +18 +18 1015.6 1012.8
06 18.11 ЮВ 3 10 км 4/4 600 м
[St]
+17.3 +14.2 82 +17 +17 1014.5 1011.7
09 18.11 В 2 10 км 4/4 600 м
[St]
+16.4 +14.8 90 +16 +16 1013.6 1010.8
12 18.11 ЮВ 2 8000 м дымка 4/4 450 м
[St]
+16.2 +15.1 93 +16 +17 1014.7 1011.9 +15.8
15 18.11 Ю 4 9000 м мгла 3/3 300 м
[St]
+19.7 +15.4 76 +22 +29 комфорт 1015.7 1012.9
18 18.11 Ю 5 9000 м мгла 8/3 1200 м
[St Ac trans]
+19.9 +15.2 74 +22 +27 комфорт 1014.3 1011.5
21 18.11 ЮВ 6 10 км 8/1 1050 м
[Sc Cs]
+19.9 +15.6 76 +22 +24 комфорт 1012.3 1009.5
00 19.11 ЮВ 5 10 км 1/1 900 м
[Sc]
+17.8 +15.4 86 +17 +17 1012.9 1010.1 +20.7
03 19.11 ЮВ 4 10 км 1/1 600 м
[Sc]
+17.6 +14.3 81 +17 +17 1014.4 1011.6
06 19.11 В 2 9000 м дымка 3/3 900 м
[St]
+16.6 +14.6 88 +17 +17 1013.5 1010.7
09 19.11 В 2 9000 м дымка 3/3 300 м
[St]
+15.9 +14.9 94 +16 +16 1012.3 1009.5
12 19.11 ЮВ 3 8000 м дымка 10/10 120 м
[St]
+16.5 +15.4 93 +16 +16 1013.7 1010.9 +15.8
15 19.11 Ю 4 9000 м дымка 10/10 450 м
[St]
+18.8 +15.9 83 +20 +20 1015.2 1012.4
18 19.11 Ю 5 10 км 10/10 570 м
[Sc]
+20.4 +15.4 73 +23 +23 комфорт 1013.8 1011.0
21 19.11 Ю 6 8000 м мгла 4/4 750 м
[Sc]
+19.4 +15.9 80 +21 +23 комфорт 1012.7 1009.3
00 20.11 ЮВ 4 10 км 6/6 750 м
[Sc]
+18.0 +15.8 87 +18 +18 1012.8 1010.0 +21.0
03 20.11 ЮВ 4 10 км 10/10 720 м
[St]
+17.8 +15.5 86 +18 +18 1015.1 1012.3
06 20.11 ЮВ 2 10 км 10/10 700 м
[St]
+16.5 +14.9 90 +17 +17 1014.2 1011.4
09 20.11 ЮВ 2 5000 м дымка 4/4 660 м
[St]
+15.9 +14.6 92 +16 +16 1013.0 1010.2
12 20.11 нст 1 5000 м дымка 8/8 600 м
[St]
+16.4 +15.3 93 +18 +18 1014.7 1011.9 +15.0
15 20.11 Ю 4 10 км 1/1 900 м
[Sc]
+19.6 +15.7 78 +22 +30 комфорт 1015.5 1012.7
18 20.11 Ю 5 10 км 4/4 700 м
[Sc]
+19.4 +15.5 78 +21 +27 комфорт 1014.2 1011.4
21 20.11 ЮВ 5 10 км 6/4 900 м
[Sc As trans]
+19.3 +15.8 80 +21 +23 комфорт 1012.5 1009.7
00 21.11 ЮВ 4 10 км 8/4 600 м
[Sc As trans]
+18.0 +15.7 86 +18 +18 1013.7 1010.9 +20.7
03 21.11 ЮВ 5 7000 м дымка 10/10 700 м
[St]
+17.9 +15.0 83 +18 +18 1014.9 1012.1
06 21.11 ЮВ 3 7000 м дымка 10/10 210 м
[St]
+17.4 +15.4 88 +18 +18 1014.2 1011.4
09 21.11 ЮВ 2 7000 м дымка 10/10 150 м
[St]
+17.2 +15.7 91 +17 +17 1013.8 1011.0
12 21.11 ЮВ 3 6000 м дымка 10/10 210 м
[St]
+17.1 +15.6 91 +17 +17 1015.2 1012.4 +16.4
15 21.11 ЮВ 6 8000 м мгла 8/8 540 м
[St]
+19.5 +15.6 78 +21 +22 комфорт 1015.2 1012.4
18 21.11 Ю 6 8000 м дымка 8/8 660 м
[St]
+19.0 +15.4 80 +20 +22 1013.2 1010.4
21 21.11 ЮВ 4 8000 м дымка 8/8 660 м
[St]
+18.4 +15.7 84 +19 +20 1011.9 1009.1
00 22.11 В 2 9000 м дымка 3/3 600 м
[St]
+17.3 +15.3 88 +18 +18 1012.7 1009.9 +20.6
03 22.11 В 2 9000 м дымка 3/3 600 м
[St]
+17.3 +15.3 88 +18 +18 1012.7 1009.9 +20.6
06 22.11 ЮВ 3 7000 м дымка 10/10 660 м
[St]
+17.5 +15.5 88 +17 +17 1013.4 1010.6
09 22.11 ЮВ 2 9000 м дымка 9/9 630 м
[St]
+17.2 +15.6 90 +17 +17 1012.4 1009.6
12 22.11 ЮВ 2 7000 м дымка 9/9 660 м
[St]
+17.6 +15.6 88 +18 +18 1013.4 1010.6 +20.6
15 22.11 Ю 3 8000 м дымка 8/8 660 м
[St]
+19.4 +16.1 81 +22 +24 комфорт 1014.6 1011.8
18 22.11 Ю 5 9000 м мгла 8/8 900 м
[St]
+20.0 +16.1 78 +22 +25 комфорт 1013.1 1010.3
21 22.11 Ю 5 10 км 6/0
[Ac trans]
+19.5 +16.4 82 +21 +24 комфорт 1011.5 1008.7
00 23.11 ЮВ 4 10 км 9/0
[Ac trans]
+18.5 +16.3 87 +19 +19 1012.8 1010.0 +21.0
03 23.11 ЮВ 3 10 км 4/4 900 м
[St]
+18.0 +15.8 87 +18 +18 1014.6 1011.8
06 23.11 ЮВ 2 10 км 4/4 900 м
[St]
+17.3 +16.2 93 +18 +18 1013.8 1011.0
09 23.11 ЮВ 2 10 км 4/4 900 м
[St]
+16.0 +16 +16 1013.1 1010.3
12 23.11 ЮВ 2 8000 м дымка 10/6 210 м
[St As trans]
+17.5 +16.5 94 +18 +18 1015.0 1012.2 +17.1
15 23.11 Ю 4 10 км ясно +19.4 +16.3 82 +21 +31 комфорт 1015.7 1012.9
18 23.11 Ю 5 10 км 3/3 1200 м
[St]
+20.4 +17.1 81 +24 +32 комфорт 1014.0 1011.2
21 23.11 Ю 4 10 км 9/3 900 м
[Sc Ac trans]
+20.4 +17.4 83 +24 +26 комфорт 1012.8 1010.0
00 24.11 ЮВ 4 10 км 10/1 750 м
[Sc Ac trans]
+18.7 +17.1 90 +20 +20 1013.9 1011.1 +21.9
03 24.11 ЮВ 3 9000 м дымка 5/0
[Ac trans]
+18.6 +16.1 85 +20 +20 1015.0 1012.2
06 24.11 ЮВ 3 9000 м дымка 3/3 1500 м
[St]
+18.3 +16.0 86 +19 +19 1013.4 1010.6

 

Местоположение метеостанции Trujillo (Перу): широта -8.08 долгота -79.10 высота над уровнем моря 30 м.

В архиве по умолчанию представлена погода в Trujillo за последнюю неделю. Архивные данные за месяц целиком и за предыдущие месяцы, начиная с января 2011 года, Вы можете получить, выбрав интересующий диапазон дат из раскрывающегося списка и нажав кнопку "Ввод!".

Внимание! Время в таблицах - всемирное. Для получения местного времени необходимо прибавить поправку, которая в Trujillo равна -5 ч.

Смотрите также архив погоды в соседних городах и на ближайших метеорологических станциях:

Погода в Cajamarca (Перу) (127 км)
Погода в Chimbote (Перу) (134 км)
Погода в Chiclayo (Перу) (164 км)
Погода в Anta (Перу) (217 км)
Погода в Chachapoyas (Перу) (251 км)
Погода в Juanjui (Перу) (282 км)
Погода в Tarapoto (Перу) (350 км)
Погода в Piura (Перу) (361 км)
Погода в Tingo Maria (Перу) (366 км)
Погода в Huanuco (Перу) (376 км)

Пояснения к столбцам:

Ветер - указаны скорость ветра в м/с - средняя за 10 мин, порывы в срок и между сроками (в фигурных скобках) и направление, откуда дует ветер: С - северный, СВ - северо-восточный, В - восточный, ЮВ - юго-восточный, Ю - южный, ЮЗ - юго-западный, З - западный, СЗ - северо-западный.
Видимость - горизонтальная дальность видимости в метрах или километрах. При видимости от 1 до 10 км при отсутствии осадков обычно наблюдается дымка, при ухудшении видимости до 1 км и менее - туман. В сухую погоду видимость может ухудшаться дымом, пылью или мглою.
Явления - указаны атмосферные явления, наблюдавшиеся в срок или в последний час перед сроком; фигурными скобками обозначены явления, наблюдавшиеся между сроками (за 1-3 часа до срока); квадратными скобками обозначены град или гололедные отложения с указанием их диаметра в мм.
Облачность - указаны через наклонную черту общая и нижняя облачность в баллах и высота нижней границы облаков в метрах; квадратными скобками обозначены формы облаков: Ci - перистые, Cs - перисто-слоистые, Cc - перисто-кучевые, Ac - высококучевые, As - высокослоистые, Sc - слоисто-кучевые, Ns - слоисто-дождевые, Cu - кучевые, Cb - кучево-дождевые. Подробнее классификацию облаков см. в Атласе облаков (PDF).
T - Температура воздуха - температура, измеренная на высоте 2 м над землей.
Td - Температура точки росы - температура, при понижении до которой содержащийся в воздухе водяной пар достигнет насыщения.
f - Относительная влажность воздуха - влажноcть воздуха, измеренная на высоте 2 м над землей.
Te - Эффективная температура - температура, которую ощущает одетый по сезону человек в тени. Характеристика душности погоды. При расчете учитывается влияние влажности воздуха и скорости ветра на теплоощущения человека.
Tes - Эффективная температура на солнце - температура, которую ощущает человек, с поправкой на солнечный нагрев. Характеристика знойности погоды. Зависит от высоты солнца над горизонтом, облачности и скорости ветра. Ночью, в пасмурную погоду, а также при ветре 12 м/с и более поправка равна нулю.
P - Атмосферное давление - приведенное к уровню моря атмосферное давление.
Po - Атмосферное давление - измеренное на уровне метеостанции атмосферное давление.
Tmin - Минимальная температура - минимум температуры воздуха на высоте 2 м над землей.
Tmax - Максимальная температура - максимум температуры воздуха на высоте 2 м над землей.
R - Количество осадков - Количество выпавших осадков за период времени, мм. При наведении курсора мыши на число - период времени, за который выпало указанное количество осадков.
R24 - Количество осадков - Количество выпавших осадков за 24 часа, мм.
S - Снежный покров - Высота снежного покрова, см. При наведении курсора мыши на число - состояние снежного покрова и степень покрытия местности в баллах.